This demonstration page uses our WeatherBlox Daily Observations layout. Learn more.

Left ArrowRight Arrow

41.55636, -103.73856

Hourly Observations for May 25, 2022

Temp ( °F °C ) Dew Point ( °F °C ) Humidity (%) Winds ( mph kmh ) Pressure ( in mb ) Visibility ( mi km ) Precip ( " mm )
12:58 am 00:58 Clear 38 3.6 36 2.1 90 90 SW 5 7 29.99 1016 10 16 0.00 0.00
1:58 am 01:58 Clear 37 2.8 35 1.5 91 91 SSW 6 9 30.00 1016 10 16 0.00 0.00
2:58 am 02:58 Partly Cloudy 36 2.2 34 1 92 92 WSW 5 7 30.01 1016 10 16 0.00 0.00
3:58 am 03:58 Clear 35 1.8 34 0.9 94 94 WSW 5 7 30.00 1016 10 16 0.00 0.00
4:58 am 04:58 Clear 35 1.6 33 0.6 93 93 W 7 11 30.01 1016 10 16 0.00 0.00
5:58 am 05:58 Sunny 35 1.7 33 0.7 93 93 SW 6 9 30.01 1016 10 16 0.00 0.00
6:58 am 06:58 Sunny 40 4.7 38 3.4 91 91 SSW 3 6 30.01 1016 10 16 0.00 0.00
7:58 am 07:58 Sunny 46 7.5 40 4.3 80 80 NW 9 15 30.00 1016 10 16 0.00 0.00
8:58 am 08:58 Sunny 52 11 40 4.2 63 63 NW 9 15 29.99 1016 10 16 0.00 0.00
9:58 am 09:58 Sunny 56 13.6 38 3.6 51 51 NNW 10 17 29.97 1015 10 16 0.00 0.00
10:58 am 10:58 Mostly Sunny 60 15.5 37 2.6 42 42 NNW 14 22 29.95 1014 10 16 0.00 0.00
11:58 am 11:58 Mostly Cloudy 62 16.8 35 1.6 36 36 NNW 17 28 29.94 1014 10 16 0.00 0.00
12:58 pm 12:58 Partly Cloudy 64 17.5 35 1.5 34 34 N 10 17 29.92 1013 10 16 0.00 0.00
1:58 pm 13:58 Mostly Cloudy 65 18.2 33 0.8 31 31 N 12 19 29.91 1013 10 16 0.00 0.00
2:58 pm 14:58 Partly Cloudy 66 19.1 31 -0.3 27 27 N 10 17 29.89 1012 10 16 0.00 0.00
3:58 pm 15:58 Partly Cloudy 67 19.7 31 -0.4 26 26 N 14 22 29.88 1012 10 16 0.00 0.00
4:58 pm 16:58 Sunny 69 20.7 28 -2.4 21 21 N 16 26 29.85 1011 10 16 0.00 0.00
5:58 pm 17:58 Sunny 69 20.6 30 -1.3 23 23 N 15 24 29.83 1010 10 16 0.00 0.00
6:58 pm 18:58 Sunny 67 19.7 29 -1.4 24 24 N 9 15 29.83 1010 10 16 0.00 0.00
7:58 pm 19:58 Sunny 61 16.1 32 -0.2 33 33 NE 10 17 29.83 1010 10 16 0.00 0.00
8:58 pm 20:58 Clear 55 13 36 2.2 48 48 ESE 9 15 29.86 1011 10 16 0.00 0.00
9:58 pm 21:58 Clear 54 12.4 37 2.5 51 51 SE 10 17 29.87 1012 10 16 0.00 0.00
10:58 pm 22:58 Clear 50 10.2 37 2.8 60 60 S 5 7 29.89 1012 10 16 0.00 0.00
11:58 pm 23:58 Clear 48 8.7 37 2.9 67 67 S 8 13 29.91 1013 10 16 0.00 0.00

Powered by AerisWeather